Location: Beadle
(51.4667°N, 109.0000°W)
Time: 10:05:09
(UTC+00:00)

deb Explorer IX - Pass Details

Date: 31 May 2022
Orbit: 535 x 1068 km, 38.8° (Epoch: 04 July)

Event Time Altitude Azimuth Distance (km) Brightness Sun altitude
Rises 18:05:53 0° 241° (WSW) 3,845 ? 57.7°
Reaches altitude 10° 18:09:06 10° 230° (SW) 2,868 ? 58.0°
Maximum altitude 18:14:46 27° 176° (S) 1,836 ? 58.4°
Drops below altitude 10° 18:20:04 10° 121° (ESE) 2,664 ? 58.7°
Sets 18:22:55 0° 110° (ESE) 3,524 ? 58.9°
